DateTimeUTC,F1_A11,F1_S11,BsB_S11,BsG_S11,BsR_S11,BbsB_S11,BbsG_S11,BbsR_S11,BaB_A11,BaG_A11,BaR_A11,Tu_S11,T_S11,Uu_S11,U_S11,P_S11,T1_A11
2021-01-15T09:00:00Z,00000200,21000000,,,,,,,-000.14,-000.46,0000.07,17.0,24.1,,00.0,0644.1,30.9
2021-01-15T09:01:00Z,00000200,21000000,,,,,,,0000.05,0000.52,0000.17,17.0,24.1,,00.0,0644.1,30.9
2021-01-15T09:02:00Z,00000200,21000000,,,,,,,-000.06,-000.03,-000.20,17.0,24.0,,00.0,0644.1,30.9
2021-01-15T09:03:00Z,00000200,61000000,,,,,,,0000.07,0000.13,0000.05,17.0,24.0,,00.0,0644.1,30.9
2021-01-15T09:04:00Z,00000200,41000000,0000.32,-000.18,0000.25,-000.19,0000.25,0000.20,-000.22,-000.25,-000.32,17.2,23.9,,00.0,0645.0,31.0
2021-01-15T09:05:00Z,00000200,01000000,0000.40,0000.23,0000.21,-000.22,-000.28,-000.23,-000.16,-000.51,-000.06,17.3,23.9,,00.0,0645.1,31.0
2021-01-15T09:06:00Z,00000200,01000000,0000.27,-000.02,0000.06,0000.02,-000.13,-000.04,-000.11,0000.28,0000.43,17.4,23.9,,00.0,0645.1,31.0
2021-01-15T09:07:00Z,00000200,01000000,0000.18,-000.18,-000.11,0000.58,-000.14,0000.24,0000.15,-000.04,-000.69,17.4,23.9,,00.0,0645.1,31.0
2021-01-15T09:08:00Z,00000200,01000000,0000.96,0000.24,-000.05,-000.71,-000.14,0000.11,-000.07,-000.20,0000.59,17.4,23.9,,00.0,0645.1,30.9
2021-01-15T09:09:00Z,00000200,01000000,0000.15,0000.39,0000.03,-000.13,-000.16,0000.10,-000.13,0000.38,-000.44,17.4,23.9,,00.0,0645.1,31.0
2021-01-15T09:10:00Z,00000200,01000000,0000.34,0000.05,-000.09,0000.27,0000.01,0000.05,0000.14,0000.04,0000.25,17.4,23.9,,00.0,0645.1,31.0
2021-01-15T09:11:00Z,00000200,01000000,0000.31,-000.13,0000.06,-000.08,-000.07,0000.25,-000.33,-000.15,0000.18,17.4,23.9,,00.0,0645.1,31.0
2021-01-15T09:12:00Z,00000200,01000000,-000.01,-000.27,-000.23,-000.21,-000.15,0000.01,0000.49,-000.25,-000.35,17.3,23.9,,00.0,0645.1,31.0
2021-01-15T09:13:00Z,00000200,01000000,0000.52,0000.17,-000.17,0000.08,0000.20,0000.07,-000.27,0000.05,-000.07,17.3,23.9,,00.0,0645.2,31.0
2021-01-15T09:14:00Z,00000200,01000000,0000.35,0000.06,-000.11,0000.03,-000.13,0000.22,-000.41,-000.14,-000.40,17.3,23.9,,00.0,0645.3,31.0
2021-01-15T09:15:00Z,00000200,01000000,0000.18,0000.05,-000.15,0000.36,0000.10,0000.13,-000.17,-000.60,-000.09,17.3,23.9,,00.0,0645.5,31.0
2021-01-15T09:16:00Z,00000200,01000000,0000.79,-000.06,-000.11,-000.43,0000.03,-000.08,-000.43,-000.74,-000.41,17.3,23.9,,00.0,0645.6,30.9
2021-01-15T09:17:00Z,00000200,01000000,0000.32,-000.12,0000.22,-000.19,-000.19,0000.10,-000.76,-000.51,-000.29,17.3,23.8,,00.0,0645.7,30.9
2021-01-15T09:18:00Z,00000200,01000000,0000.11,0000.07,0000.03,0000.01,-000.14,-000.16,-000.71,-000.42,-000.49,17.2,23.8,,00.0,0645.7,31.0
2021-01-15T09:19:00Z,00000200,01000000,0000.34,-000.06,-000.04,-000.08,-000.03,0000.21,-000.63,-000.73,-000.41,17.2,23.8,,00.0,0645.6,30.9
2021-01-15T09:20:00Z,00000200,01000000,0001.31,0000.21,-000.09,0000.43,-000.17,-000.04,0000.04,-000.03,-000.23,17.2,23.8,,00.0,0645.4,30.9
2021-01-15T09:21:00Z,00000200,01000000,-000.05,-000.09,0000.05,-000.07,-000.31,0000.27,0000.05,0000.44,0000.28,17.2,23.8,,00.0,0645.4,30.9
2021-01-15T09:22:00Z,00000200,01000000,0000.66,0000.01,0000.07,0000.10,0000.15,0000.15,0000.12,0000.08,0000.14,17.2,23.8,,00.0,0645.3,30.9
2021-01-15T09:23:00Z,00000200,01000000,0001.37,-000.06,-000.30,-000.10,-000.09,0000.10,0000.19,-000.05,0000.23,17.1,23.8,,00.0,0645.3,30.9
2021-01-15T09:24:00Z,00000200,01000000,0000.26,0000.18,-000.06,0000.21,-000.00,0000.04,0000.02,0000.20,0000.12,17.1,23.8,,00.0,0645.4,30.9
2021-01-15T09:25:00Z,00000200,01000000,-000.07,0000.21,0000.14,0000.09,0000.03,0000.08,0000.02,-000.50,0000.05,17.1,23.7,,00.0,0645.4,30.9
2021-01-15T09:26:00Z,00000200,01000000,-000.09,0000.22,-000.17,-000.35,-000.02,0000.00,-000.34,0000.14,-000.49,17.1,23.8,,00.0,0645.5,30.9
2021-01-15T09:27:00Z,00000200,01000000,0000.22,0000.24,0000.25,0000.04,0000.09,0000.21,0000.15,0000.17,0000.23,17.1,23.7,,00.0,0645.5,30.9
2021-01-15T09:28:00Z,00000200,01000000,-000.38,-000.02,-000.11,-000.35,0000.03,-000.15,0000.01,-000.41,-000.40,17.1,23.7,,00.0,0645.4,30.9
2021-01-15T09:29:00Z,00000200,01000000,0000.44,-000.10,-000.21,-000.14,-000.18,0000.04,-000.10,0000.28,0000.03,17.0,23.7,,00.0,0645.4,30.9
2021-01-15T09:30:00Z,00000200,01000000,-000.02,0000.08,0000.03,0000.59,0000.03,0000.07,0000.08,-000.24,0000.23,17.0,23.7,,00.0,0645.3,30.9
2021-01-15T09:31:00Z,00000200,01000000,0000.25,0000.12,0000.27,0000.33,0000.18,0000.01,-000.08,0000.04,0000.28,17.0,23.7,,00.0,0645.3,30.9
2021-01-15T09:32:00Z,00000200,01000000,0000.70,0000.07,-000.11,0000.59,0000.03,0000.11,0000.25,0000.02,-000.09,17.0,23.7,,00.0,0645.3,30.9
2021-01-15T09:33:00Z,00000200,01000000,0000.03,-000.00,-000.48,0000.16,0000.05,0000.14,-000.10,0000.60,0000.13,17.0,23.7,,00.0,0645.3,30.9
2021-01-15T09:34:00Z,00000200,01000000,0000.65,0000.32,0000.09,-000.15,-000.10,0000.19,0000.39,0000.16,0000.25,17.1,23.7,,00.0,0645.2,30.9
2021-01-15T09:35:00Z,00000200,01000000,0000.35,0000.24,-000.31,-000.73,0000.12,0000.11,0000.21,0000.27,0000.37,17.1,23.7,,00.0,0645.3,30.9
2021-01-15T09:36:00Z,00000200,01000000,0000.44,0000.19,-000.15,-000.45,-000.27,0000.01,0000.14,0000.17,-000.27,17.2,23.7,,00.0,0645.3,30.9
2021-01-15T09:37:00Z,00000200,01000000,0000.14,0000.04,0000.11,0000.04,-000.04,0000.19,-000.31,-000.13,0000.11,17.3,23.8,,00.0,0645.3,31.0
2021-01-15T09:38:00Z,00000200,01000000,0000.40,-000.20,-000.15,-000.33,-000.04,0000.21,0000.03,-000.12,0000.04,17.4,23.8,,00.0,0645.3,31.0
2021-01-15T09:39:00Z,00000200,01000000,0000.72,0000.22,-000.08,0000.02,0000.25,-000.33,-000.03,0000.04,-000.05,17.4,23.8,,00.0,0645.2,31.0
2021-01-15T09:40:00Z,00000200,01000000,0000.39,0000.07,0000.06,0000.30,0000.06,0000.11,0000.05,-000.09,-000.32,17.4,23.8,,00.0,0645.2,31.0
2021-01-15T09:41:00Z,00000200,01000000,0001.29,0000.10,-000.03,0000.12,0000.07,0000.15,0000.01,0000.03,0000.14,17.4,23.8,,00.0,0645.2,31.0
2021-01-15T09:42:00Z,00000200,01000000,0000.17,0000.00,-000.18,-000.06,-000.07,-000.11,0000.00,-000.13,0000.15,17.3,23.8,,00.0,0645.2,31.0
2021-01-15T09:43:00Z,00000200,01000000,0000.39,-000.01,0000.15,-000.06,0000.21,0000.20,0000.02,0000.00,-000.07,17.3,23.8,,00.0,0645.3,31.0
2021-01-15T09:44:00Z,00000200,01000000,0000.49,-000.02,0000.20,0000.12,-000.13,0000.08,0000.29,0000.15,-000.11,17.3,23.8,,00.0,0645.3,31.0
2021-01-15T09:45:00Z,00000200,01000000,-000.27,0000.02,-000.12,-000.12,-000.08,0000.34,-000.26,0000.09,0000.05,17.3,23.8,,00.0,0645.3,30.9
2021-01-15T09:46:00Z,00000200,01000000,0000.47,0000.04,-000.20,-000.26,0000.19,-000.05,0000.05,-000.26,-000.26,17.2,23.8,,00.0,0645.4,30.9
2021-01-15T09:47:00Z,00000200,01000000,-000.07,0000.16,-000.06,0000.07,0000.13,0000.20,-000.00,-000.16,0000.30,17.2,23.8,,00.0,0645.3,30.9
2021-01-15T09:48:00Z,00000200,01000000,0000.86,0000.00,0000.20,-000.11,-000.05,0000.01,-000.43,0000.03,0000.09,17.2,23.8,,00.0,0645.4,30.9
2021-01-15T09:49:00Z,00000200,01000000,0000.76,0000.08,-000.18,0000.21,0000.10,0000.10,0000.58,0000.32,-000.19,17.3,23.8,,00.0,0645.4,30.9
2021-01-15T09:50:00Z,00000200,01000000,-000.31,0000.12,0000.03,-000.60,0000.13,0000.24,-000.42,-000.29,-000.13,17.3,23.8,,00.0,0645.4,31.0
2021-01-15T09:51:00Z,00000200,01000000,-000.24,0000.04,0000.19,-000.52,0000.25,-000.08,-000.31,-000.49,-000.30,17.3,23.8,,00.0,0645.4,31.0
2021-01-15T09:52:00Z,00000200,01000000,-000.04,-000.14,-000.22,0000.43,-000.06,-000.09,0000.06,0000.09,0000.03,17.4,23.8,,00.0,0645.4,30.9
2021-01-15T09:53:00Z,00000200,01000000,-000.55,-000.09,0000.12,-000.31,0000.03,0000.07,-000.10,0000.24,0000.23,17.4,23.8,,00.0,0645.4,30.9
2021-01-15T09:54:00Z,00000200,01000000,0000.50,0000.11,-000.15,-000.42,-000.23,0000.04,-000.07,-000.31,-000.15,17.3,23.8,,00.0,0645.3,30.9
2021-01-15T09:55:00Z,00000200,01000000,0000.38,-000.20,-000.12,-000.09,-000.10,-000.15,-000.10,0000.28,-000.02,17.3,23.8,,00.0,0645.4,30.9
2021-01-15T09:56:00Z,00000200,01000000,0000.08,0000.32,0000.03,0000.23,0000.01,-000.01,-000.03,-000.27,-000.06,17.3,23.8,,00.0,0645.5,30.9
2021-01-15T09:57:00Z,00000200,41000000,,,,,,,0000.65,0000.32,0000.59,17.3,23.9,,00.0,0645.4,30.9
2021-01-15T09:58:00Z,00000200,61000000,,,,,,,-000.41,-000.32,-000.74,16.9,23.9,,00.0,0644.6,30.9
2021-01-15T09:59:00Z,00000200,21000000,,,,,,,-000.41,-000.09,-000.19,16.9,24.0,,00.0,0644.6,30.9
